Index of /20260507/WXO-DD/model_rdps/10km/18/082
Name Last modified Size Description
Parent Directory -
20260506T18Z_MSC_RDPS_AbsoluteVorticity_IsbL-0250_RLatLon0.09_PT082H.grib2 2026-05-07 03:01 601K
20260506T18Z_MSC_RDPS_AbsoluteVorticity_IsbL-0500_RLatLon0.09_PT082H.grib2 2026-05-07 03:01 564K
20260506T18Z_MSC_RDPS_AbsoluteVorticity_IsbL-0700_RLatLon0.09_PT082H.grib2 2026-05-07 03:01 622K
20260506T18Z_MSC_RDPS_AbsoluteVorticity_IsbL-0850_RLatLon0.09_PT082H.grib2 2026-05-07 03:01 783K
20260506T18Z_MSC_RDPS_AirTemp_AGL-120m_RLatLon0.09_PT082H.grib2 2026-05-07 03:01 370K
20260506T18Z_MSC_RDPS_AirTemp_AGL-2m_RLatLon0.09_PT082H.grib2 2026-05-07 03:01 622K
20260506T18Z_MSC_RDPS_AirTemp_AGL-40m_RLatLon0.09_PT082H.grib2 2026-05-07 03:01 383K
20260506T18Z_MSC_RDPS_AirTemp_AGL-80m_RLatLon0.09_PT082H.grib2 2026-05-07 03:01 375K
20260506T18Z_MSC_RDPS_AirTemp_IsbL-0001_RLatLon0.09_PT082H.grib2 2026-05-07 03:01 228K
20260506T18Z_MSC_RDPS_AirTemp_IsbL-0005_RLatLon0.09_PT082H.grib2 2026-05-07 03:01 375K
20260506T18Z_MSC_RDPS_AirTemp_IsbL-0010_RLatLon0.09_PT082H.grib2 2026-05-07 03:01 297K
20260506T18Z_MSC_RDPS_AirTemp_IsbL-0020_RLatLon0.09_PT082H.grib2 2026-05-07 03:01 314K
20260506T18Z_MSC_RDPS_AirTemp_IsbL-0030_RLatLon0.09_PT082H.grib2 2026-05-07 03:01 331K
20260506T18Z_MSC_RDPS_AirTemp_IsbL-0050_RLatLon0.09_PT082H.grib2 2026-05-07 03:01 306K
20260506T18Z_MSC_RDPS_AirTemp_IsbL-0100_RLatLon0.09_PT082H.grib2 2026-05-07 03:01 428K
20260506T18Z_MSC_RDPS_AirTemp_IsbL-0150_RLatLon0.09_PT082H.grib2 2026-05-07 03:01 413K
20260506T18Z_MSC_RDPS_AirTemp_IsbL-0175_RLatLon0.09_PT082H.grib2 2026-05-07 03:01 407K
20260506T18Z_MSC_RDPS_AirTemp_IsbL-0200_RLatLon0.09_PT082H.grib2 2026-05-07 03:01 409K
20260506T18Z_MSC_RDPS_AirTemp_IsbL-0225_RLatLon0.09_PT082H.grib2 2026-05-07 03:01 412K
20260506T18Z_MSC_RDPS_AirTemp_IsbL-0250_RLatLon0.09_PT082H.grib2 2026-05-07 03:01 422K
20260506T18Z_MSC_RDPS_AirTemp_IsbL-0275_RLatLon0.09_PT082H.grib2 2026-05-07 03:01 402K
20260506T18Z_MSC_RDPS_AirTemp_IsbL-0300_RLatLon0.09_PT082H.grib2 2026-05-07 03:01 433K
20260506T18Z_MSC_RDPS_AirTemp_IsbL-0350_RLatLon0.09_PT082H.grib2 2026-05-07 03:01 421K
20260506T18Z_MSC_RDPS_AirTemp_IsbL-0400_RLatLon0.09_PT082H.grib2 2026-05-07 03:01 425K
20260506T18Z_MSC_RDPS_AirTemp_IsbL-0450_RLatLon0.09_PT082H.grib2 2026-05-07 03:01 435K
20260506T18Z_MSC_RDPS_AirTemp_IsbL-0500_RLatLon0.09_PT082H.grib2 2026-05-07 03:01 446K
20260506T18Z_MSC_RDPS_AirTemp_IsbL-0550_RLatLon0.09_PT082H.grib2 2026-05-07 03:01 463K
20260506T18Z_MSC_RDPS_AirTemp_IsbL-0600_RLatLon0.09_PT082H.grib2 2026-05-07 03:01 480K
20260506T18Z_MSC_RDPS_AirTemp_IsbL-0650_RLatLon0.09_PT082H.grib2 2026-05-07 03:01 495K
20260506T18Z_MSC_RDPS_AirTemp_IsbL-0700_RLatLon0.09_PT082H.grib2 2026-05-07 03:01 522K
20260506T18Z_MSC_RDPS_AirTemp_IsbL-0750_RLatLon0.09_PT082H.grib2 2026-05-07 03:01 521K
20260506T18Z_MSC_RDPS_AirTemp_IsbL-0800_RLatLon0.09_PT082H.grib2 2026-05-07 03:01 456K
20260506T18Z_MSC_RDPS_AirTemp_IsbL-0850_RLatLon0.09_PT082H.grib2 2026-05-07 03:01 503K
20260506T18Z_MSC_RDPS_AirTemp_IsbL-0875_RLatLon0.09_PT082H.grib2 2026-05-07 03:01 518K
20260506T18Z_MSC_RDPS_AirTemp_IsbL-0900_RLatLon0.09_PT082H.grib2 2026-05-07 03:01 522K
20260506T18Z_MSC_RDPS_AirTemp_IsbL-0925_RLatLon0.09_PT082H.grib2 2026-05-07 03:01 521K
20260506T18Z_MSC_RDPS_AirTemp_IsbL-0950_RLatLon0.09_PT082H.grib2 2026-05-07 03:01 520K
20260506T18Z_MSC_RDPS_AirTemp_IsbL-0970_RLatLon0.09_PT082H.grib2 2026-05-07 03:01 515K
20260506T18Z_MSC_RDPS_AirTemp_IsbL-0985_RLatLon0.09_PT082H.grib2 2026-05-07 03:01 501K
20260506T18Z_MSC_RDPS_AirTemp_IsbL-1000_RLatLon0.09_PT082H.grib2 2026-05-07 03:01 483K
20260506T18Z_MSC_RDPS_AirTemp_IsbL-1015_RLatLon0.09_PT082H.grib2 2026-05-07 03:01 485K
20260506T18Z_MSC_RDPS_Albedo_Sfc_RLatLon0.09_PT082H.grib2 2026-05-07 03:01 158K
20260506T18Z_MSC_RDPS_CAPE_Sfc_RLatLon0.09_PT082H.grib2 2026-05-07 03:01 1.7M
20260506T18Z_MSC_RDPS_CIN_Sfc_RLatLon0.09_PT082H.grib2 2026-05-07 03:01 1.3M
20260506T18Z_MSC_RDPS_CloudWater_EAtm_RLatLon0.09_PT082H.grib2 2026-05-07 03:01 226K
20260506T18Z_MSC_RDPS_ConvectivePrecip-Accum_Sfc_RLatLon0.09_PT082H.grib2 2026-05-07 03:01 1.3M
20260506T18Z_MSC_RDPS_DewPointDepression_AGL-2m_RLatLon0.09_PT082H.grib2 2026-05-07 03:01 395K
20260506T18Z_MSC_RDPS_DewPointDepression_IsbL-0001_RLatLon0.09_PT082H.grib2 2026-05-07 03:01 193
20260506T18Z_MSC_RDPS_DewPointDepression_IsbL-0005_RLatLon0.09_PT082H.grib2 2026-05-07 03:01 193
20260506T18Z_MSC_RDPS_DewPointDepression_IsbL-0010_RLatLon0.09_PT082H.grib2 2026-05-07 03:01 193
20260506T18Z_MSC_RDPS_DewPointDepression_IsbL-0020_RLatLon0.09_PT082H.grib2 2026-05-07 03:01 193
20260506T18Z_MSC_RDPS_DewPointDepression_IsbL-0030_RLatLon0.09_PT082H.grib2 2026-05-07 03:01 823
20260506T18Z_MSC_RDPS_DewPointDepression_IsbL-0050_RLatLon0.09_PT082H.grib2 2026-05-07 03:01 77K
20260506T18Z_MSC_RDPS_DewPointDepression_IsbL-0100_RLatLon0.09_PT082H.grib2 2026-05-07 03:01 111K
20260506T18Z_MSC_RDPS_DewPointDepression_IsbL-0150_RLatLon0.09_PT082H.grib2 2026-05-07 03:01 144K
20260506T18Z_MSC_RDPS_DewPointDepression_IsbL-0175_RLatLon0.09_PT082H.grib2 2026-05-07 03:01 172K
20260506T18Z_MSC_RDPS_DewPointDepression_IsbL-0200_RLatLon0.09_PT082H.grib2 2026-05-07 03:01 215K
20260506T18Z_MSC_RDPS_DewPointDepression_IsbL-0225_RLatLon0.09_PT082H.grib2 2026-05-07 03:01 262K
20260506T18Z_MSC_RDPS_DewPointDepression_IsbL-0250_RLatLon0.09_PT082H.grib2 2026-05-07 03:01 303K
20260506T18Z_MSC_RDPS_DewPointDepression_IsbL-0275_RLatLon0.09_PT082H.grib2 2026-05-07 03:01 310K
20260506T18Z_MSC_RDPS_DewPointDepression_IsbL-0300_RLatLon0.09_PT082H.grib2 2026-05-07 03:01 323K
20260506T18Z_MSC_RDPS_DewPointDepression_IsbL-0350_RLatLon0.09_PT082H.grib2 2026-05-07 03:01 325K
20260506T18Z_MSC_RDPS_DewPointDepression_IsbL-0400_RLatLon0.09_PT082H.grib2 2026-05-07 03:01 337K
20260506T18Z_MSC_RDPS_DewPointDepression_IsbL-0450_RLatLon0.09_PT082H.grib2 2026-05-07 03:01 341K
20260506T18Z_MSC_RDPS_DewPointDepression_IsbL-0500_RLatLon0.09_PT082H.grib2 2026-05-07 03:01 348K
20260506T18Z_MSC_RDPS_DewPointDepression_IsbL-0550_RLatLon0.09_PT082H.grib2 2026-05-07 03:01 357K
20260506T18Z_MSC_RDPS_DewPointDepression_IsbL-0600_RLatLon0.09_PT082H.grib2 2026-05-07 03:01 372K
20260506T18Z_MSC_RDPS_DewPointDepression_IsbL-0650_RLatLon0.09_PT082H.grib2 2026-05-07 03:01 384K
20260506T18Z_MSC_RDPS_DewPointDepression_IsbL-0700_RLatLon0.09_PT082H.grib2 2026-05-07 03:01 394K
20260506T18Z_MSC_RDPS_DewPointDepression_IsbL-0750_RLatLon0.09_PT082H.grib2 2026-05-07 03:01 413K
20260506T18Z_MSC_RDPS_DewPointDepression_IsbL-0800_RLatLon0.09_PT082H.grib2 2026-05-07 03:01 448K
20260506T18Z_MSC_RDPS_DewPointDepression_IsbL-0850_RLatLon0.09_PT082H.grib2 2026-05-07 03:01 475K
20260506T18Z_MSC_RDPS_DewPointDepression_IsbL-0875_RLatLon0.09_PT082H.grib2 2026-05-07 03:01 469K
20260506T18Z_MSC_RDPS_DewPointDepression_IsbL-0900_RLatLon0.09_PT082H.grib2 2026-05-07 03:01 456K
20260506T18Z_MSC_RDPS_DewPointDepression_IsbL-0925_RLatLon0.09_PT082H.grib2 2026-05-07 03:01 443K
20260506T18Z_MSC_RDPS_DewPointDepression_IsbL-0950_RLatLon0.09_PT082H.grib2 2026-05-07 03:01 434K
20260506T18Z_MSC_RDPS_DewPointDepression_IsbL-0970_RLatLon0.09_PT082H.grib2 2026-05-07 03:01 426K
20260506T18Z_MSC_RDPS_DewPointDepression_IsbL-0985_RLatLon0.09_PT082H.grib2 2026-05-07 03:01 420K
20260506T18Z_MSC_RDPS_DewPointDepression_IsbL-1000_RLatLon0.09_PT082H.grib2 2026-05-07 03:01 414K
20260506T18Z_MSC_RDPS_DewPointDepression_IsbL-1015_RLatLon0.09_PT082H.grib2 2026-05-07 03:01 404K
20260506T18Z_MSC_RDPS_DewPoint_AGL-2m_RLatLon0.09_PT082H.grib2 2026-05-07 03:01 385K
20260506T18Z_MSC_RDPS_DownwardLongwaveRadiationFlux-Accum_Sfc_RLatLon0.09_PT082H.grib2 2026-05-07 03:01 442K
20260506T18Z_MSC_RDPS_DownwardShortwaveRadiationFlux-Accum_NTAtm_RLatLon0.09_PT082H.grib2 2026-05-07 03:01 107K
20260506T18Z_MSC_RDPS_DownwardShortwaveRadiationFlux-Accum_Sfc_RLatLon0.09_PT082H.grib2 2026-05-07 03:01 513K
20260506T18Z_MSC_RDPS_FreezingRain-Accum1h_Sfc_RLatLon0.09_PT082H.grib2 2026-05-07 03:01 41K
20260506T18Z_MSC_RDPS_FreezingRain-Accum_Sfc_RLatLon0.09_PT082H.grib2 2026-05-07 03:01 216K
20260506T18Z_MSC_RDPS_GeopotentialHeight_IsbL-0001_RLatLon0.09_PT082H.grib2 2026-05-07 03:01 237K
20260506T18Z_MSC_RDPS_GeopotentialHeight_IsbL-0005_RLatLon0.09_PT082H.grib2 2026-05-07 03:01 301K
20260506T18Z_MSC_RDPS_GeopotentialHeight_IsbL-0010_RLatLon0.09_PT082H.grib2 2026-05-07 03:01 302K
20260506T18Z_MSC_RDPS_GeopotentialHeight_IsbL-0020_RLatLon0.09_PT082H.grib2 2026-05-07 03:01 302K
20260506T18Z_MSC_RDPS_GeopotentialHeight_IsbL-0030_RLatLon0.09_PT082H.grib2 2026-05-07 03:01 398K
20260506T18Z_MSC_RDPS_GeopotentialHeight_IsbL-0050_RLatLon0.09_PT082H.grib2 2026-05-07 03:01 305K
20260506T18Z_MSC_RDPS_GeopotentialHeight_IsbL-0100_RLatLon0.09_PT082H.grib2 2026-05-07 03:01 284K
20260506T18Z_MSC_RDPS_GeopotentialHeight_IsbL-0150_RLatLon0.09_PT082H.grib2 2026-05-07 03:01 226K
20260506T18Z_MSC_RDPS_GeopotentialHeight_IsbL-0175_RLatLon0.09_PT082H.grib2 2026-05-07 03:01 228K
20260506T18Z_MSC_RDPS_GeopotentialHeight_IsbL-0200_RLatLon0.09_PT082H.grib2 2026-05-07 03:01 231K
20260506T18Z_MSC_RDPS_GeopotentialHeight_IsbL-0225_RLatLon0.09_PT082H.grib2 2026-05-07 03:01 264K
20260506T18Z_MSC_RDPS_GeopotentialHeight_IsbL-0250_RLatLon0.09_PT082H.grib2 2026-05-07 03:01 265K
20260506T18Z_MSC_RDPS_GeopotentialHeight_IsbL-0275_RLatLon0.09_PT082H.grib2 2026-05-07 03:01 264K
20260506T18Z_MSC_RDPS_GeopotentialHeight_IsbL-0300_RLatLon0.09_PT082H.grib2 2026-05-07 03:01 234K
20260506T18Z_MSC_RDPS_GeopotentialHeight_IsbL-0350_RLatLon0.09_PT082H.grib2 2026-05-07 03:01 230K
20260506T18Z_MSC_RDPS_GeopotentialHeight_IsbL-0400_RLatLon0.09_PT082H.grib2 2026-05-07 03:01 226K
20260506T18Z_MSC_RDPS_GeopotentialHeight_IsbL-0450_RLatLon0.09_PT082H.grib2 2026-05-07 03:01 294K
20260506T18Z_MSC_RDPS_GeopotentialHeight_IsbL-0500_RLatLon0.09_PT082H.grib2 2026-05-07 03:01 290K
20260506T18Z_MSC_RDPS_GeopotentialHeight_IsbL-0550_RLatLon0.09_PT082H.grib2 2026-05-07 03:01 285K
20260506T18Z_MSC_RDPS_GeopotentialHeight_IsbL-0600_RLatLon0.09_PT082H.grib2 2026-05-07 03:01 283K
20260506T18Z_MSC_RDPS_GeopotentialHeight_IsbL-0650_RLatLon0.09_PT082H.grib2 2026-05-07 03:01 281K
20260506T18Z_MSC_RDPS_GeopotentialHeight_IsbL-0700_RLatLon0.09_PT082H.grib2 2026-05-07 03:01 252K
20260506T18Z_MSC_RDPS_GeopotentialHeight_IsbL-0750_RLatLon0.09_PT082H.grib2 2026-05-07 03:01 254K
20260506T18Z_MSC_RDPS_GeopotentialHeight_IsbL-0800_RLatLon0.09_PT082H.grib2 2026-05-07 03:01 261K
20260506T18Z_MSC_RDPS_GeopotentialHeight_IsbL-0850_RLatLon0.09_PT082H.grib2 2026-05-07 03:01 269K
20260506T18Z_MSC_RDPS_GeopotentialHeight_IsbL-0875_RLatLon0.09_PT082H.grib2 2026-05-07 03:01 271K
20260506T18Z_MSC_RDPS_GeopotentialHeight_IsbL-0900_RLatLon0.09_PT082H.grib2 2026-05-07 03:01 361K
20260506T18Z_MSC_RDPS_GeopotentialHeight_IsbL-0925_RLatLon0.09_PT082H.grib2 2026-05-07 03:01 364K
20260506T18Z_MSC_RDPS_GeopotentialHeight_IsbL-0950_RLatLon0.09_PT082H.grib2 2026-05-07 03:01 368K
20260506T18Z_MSC_RDPS_GeopotentialHeight_IsbL-0970_RLatLon0.09_PT082H.grib2 2026-05-07 03:01 372K
20260506T18Z_MSC_RDPS_GeopotentialHeight_IsbL-0985_RLatLon0.09_PT082H.grib2 2026-05-07 03:01 380K
20260506T18Z_MSC_RDPS_GeopotentialHeight_IsbL-1000_RLatLon0.09_PT082H.grib2 2026-05-07 03:01 391K
20260506T18Z_MSC_RDPS_GeopotentialHeight_IsbL-1015_RLatLon0.09_PT082H.grib2 2026-05-07 03:01 405K
20260506T18Z_MSC_RDPS_Humidex_Sfc_RLatLon0.09_PT082H.grib2 2026-05-07 03:01 2.4M
20260506T18Z_MSC_RDPS_IcePellets-Accum1h_Sfc_RLatLon0.09_PT082H.grib2 2026-05-07 03:01 4.8K
20260506T18Z_MSC_RDPS_IcePellets-Accum_Sfc_RLatLon0.09_PT082H.grib2 2026-05-07 03:01 31K
20260506T18Z_MSC_RDPS_KIndex_Sfc_RLatLon0.09_PT082H.grib2 2026-05-07 03:01 2.5M
20260506T18Z_MSC_RDPS_LatentHeatNetFlux_Sfc_RLatLon0.09_PT082H.grib2 2026-05-07 03:01 319K
20260506T18Z_MSC_RDPS_LiftedIndex-MU-VT_IsbL-0500_RLatLon0.09_PT082H.grib2 2026-05-07 03:01 2.4M
20260506T18Z_MSC_RDPS_NetLongwaveRadiationFlux-Accum_Sfc_RLatLon0.09_PT082H.grib2 2026-05-07 03:01 453K
20260506T18Z_MSC_RDPS_NetShortwaveRadiationFlux-Accum_Sfc_RLatLon0.09_PT082H.grib2 2026-05-07 03:01 655K
20260506T18Z_MSC_RDPS_PlanetaryBoundaryLayerHeight_Sfc_RLatLon0.09_PT082H.grib2 2026-05-07 03:01 1.1M
20260506T18Z_MSC_RDPS_Precip-Accum1h_Sfc_RLatLon0.09_PT082H.grib2 2026-05-07 03:01 1.2M
20260506T18Z_MSC_RDPS_Precip-Accum_Sfc_RLatLon0.09_PT082H.grib2 2026-05-07 03:01 2.2M
20260506T18Z_MSC_RDPS_PrecipRate_Sfc_RLatLon0.09_PT082H.grib2 2026-05-07 03:01 173K
20260506T18Z_MSC_RDPS_PrecipType-Instant_Sfc_RLatLon0.09_PT082H.grib2 2026-05-07 03:01 574K
20260506T18Z_MSC_RDPS_Pressure-Trend3h_Sfc_RLatLon0.09_PT082H.grib2 2026-05-07 03:01 1.2M
20260506T18Z_MSC_RDPS_Pressure_MSL_RLatLon0.09_PT082H.grib2 2026-05-07 03:01 323K
20260506T18Z_MSC_RDPS_Pressure_PVU-1.5_RLatLon0.09_PT082H.grib2 2026-05-07 03:01 2.3M
20260506T18Z_MSC_RDPS_Pressure_PVU-1_RLatLon0.09_PT082H.grib2 2026-05-07 03:01 2.4M
20260506T18Z_MSC_RDPS_Pressure_PVU-2_RLatLon0.09_PT082H.grib2 2026-05-07 03:01 2.4M
20260506T18Z_MSC_RDPS_Pressure_Sfc_RLatLon0.09_PT082H.grib2 2026-05-07 03:01 497K
20260506T18Z_MSC_RDPS_RadiativeTemp_Sfc_RLatLon0.09_PT082H.grib2 2026-05-07 03:01 303K
20260506T18Z_MSC_RDPS_Rain-Accum1h_Sfc_RLatLon0.09_PT082H.grib2 2026-05-07 03:01 543K
20260506T18Z_MSC_RDPS_Rain-Accum_Sfc_RLatLon0.09_PT082H.grib2 2026-05-07 03:01 1.9M
20260506T18Z_MSC_RDPS_RelativeHumidity_AGL-2m_RLatLon0.09_PT082H.grib2 2026-05-07 03:01 1.0M
20260506T18Z_MSC_RDPS_RelativeHumidity_IsbL-0010_RLatLon0.09_PT082H.grib2 2026-05-07 03:01 573K
20260506T18Z_MSC_RDPS_RelativeHumidity_IsbL-0020_RLatLon0.09_PT082H.grib2 2026-05-07 03:01 625K
20260506T18Z_MSC_RDPS_RelativeHumidity_IsbL-0030_RLatLon0.09_PT082H.grib2 2026-05-07 03:01 626K
20260506T18Z_MSC_RDPS_RelativeHumidity_IsbL-0050_RLatLon0.09_PT082H.grib2 2026-05-07 03:01 351K
20260506T18Z_MSC_RDPS_RelativeHumidity_IsbL-0100_RLatLon0.09_PT082H.grib2 2026-05-07 03:01 277K
20260506T18Z_MSC_RDPS_RelativeHumidity_IsbL-0150_RLatLon0.09_PT082H.grib2 2026-05-07 03:01 410K
20260506T18Z_MSC_RDPS_RelativeHumidity_IsbL-0175_RLatLon0.09_PT082H.grib2 2026-05-07 03:01 466K
20260506T18Z_MSC_RDPS_RelativeHumidity_IsbL-0200_RLatLon0.09_PT082H.grib2 2026-05-07 03:01 536K
20260506T18Z_MSC_RDPS_RelativeHumidity_IsbL-0225_RLatLon0.09_PT082H.grib2 2026-05-07 03:01 613K
20260506T18Z_MSC_RDPS_RelativeHumidity_IsbL-0250_RLatLon0.09_PT082H.grib2 2026-05-07 03:01 691K
20260506T18Z_MSC_RDPS_RelativeHumidity_IsbL-0275_RLatLon0.09_PT082H.grib2 2026-05-07 03:01 719K
20260506T18Z_MSC_RDPS_RelativeHumidity_IsbL-0300_RLatLon0.09_PT082H.grib2 2026-05-07 03:01 759K
20260506T18Z_MSC_RDPS_RelativeHumidity_IsbL-0350_RLatLon0.09_PT082H.grib2 2026-05-07 03:01 770K
20260506T18Z_MSC_RDPS_RelativeHumidity_IsbL-0400_RLatLon0.09_PT082H.grib2 2026-05-07 03:01 787K
20260506T18Z_MSC_RDPS_RelativeHumidity_IsbL-0450_RLatLon0.09_PT082H.grib2 2026-05-07 03:01 794K
20260506T18Z_MSC_RDPS_RelativeHumidity_IsbL-0500_RLatLon0.09_PT082H.grib2 2026-05-07 03:01 799K
20260506T18Z_MSC_RDPS_RelativeHumidity_IsbL-0550_RLatLon0.09_PT082H.grib2 2026-05-07 03:01 814K
20260506T18Z_MSC_RDPS_RelativeHumidity_IsbL-0600_RLatLon0.09_PT082H.grib2 2026-05-07 03:01 836K
20260506T18Z_MSC_RDPS_RelativeHumidity_IsbL-0650_RLatLon0.09_PT082H.grib2 2026-05-07 03:01 852K
20260506T18Z_MSC_RDPS_RelativeHumidity_IsbL-0700_RLatLon0.09_PT082H.grib2 2026-05-07 03:01 886K
20260506T18Z_MSC_RDPS_RelativeHumidity_IsbL-0750_RLatLon0.09_PT082H.grib2 2026-05-07 03:01 930K
20260506T18Z_MSC_RDPS_RelativeHumidity_IsbL-0800_RLatLon0.09_PT082H.grib2 2026-05-07 03:01 1.0M
20260506T18Z_MSC_RDPS_RelativeHumidity_IsbL-0850_RLatLon0.09_PT082H.grib2 2026-05-07 03:01 1.0M
20260506T18Z_MSC_RDPS_RelativeHumidity_IsbL-0875_RLatLon0.09_PT082H.grib2 2026-05-07 03:01 1.0M
20260506T18Z_MSC_RDPS_RelativeHumidity_IsbL-0900_RLatLon0.09_PT082H.grib2 2026-05-07 03:01 1.1M
20260506T18Z_MSC_RDPS_RelativeHumidity_IsbL-0925_RLatLon0.09_PT082H.grib2 2026-05-07 03:01 1.1M
20260506T18Z_MSC_RDPS_RelativeHumidity_IsbL-0950_RLatLon0.09_PT082H.grib2 2026-05-07 03:01 1.0M
20260506T18Z_MSC_RDPS_RelativeHumidity_IsbL-0970_RLatLon0.09_PT082H.grib2 2026-05-07 03:01 1.0M
20260506T18Z_MSC_RDPS_RelativeHumidity_IsbL-0985_RLatLon0.09_PT082H.grib2 2026-05-07 03:01 1.0M
20260506T18Z_MSC_RDPS_RelativeHumidity_IsbL-1000_RLatLon0.09_PT082H.grib2 2026-05-07 03:01 1.0M
20260506T18Z_MSC_RDPS_RelativeHumidity_IsbL-1015_RLatLon0.09_PT082H.grib2 2026-05-07 03:01 1.0M
20260506T18Z_MSC_RDPS_Runoff-Accum_Sfc_RLatLon0.09_PT082H.grib2 2026-05-07 03:01 51K
20260506T18Z_MSC_RDPS_SWEATIndex_Sfc_RLatLon0.09_PT082H.grib2 2026-05-07 03:01 2.5M
20260506T18Z_MSC_RDPS_SeeingIndex_EAtm_RLatLon0.09_PT082H.grib2 2026-05-07 03:01 1.0M
20260506T18Z_MSC_RDPS_SensibleHeatNetFlux_Sfc_RLatLon0.09_PT082H.grib2 2026-05-07 03:01 289K
20260506T18Z_MSC_RDPS_ShowalterIndex_IsbL-0500_RLatLon0.09_PT082H.grib2 2026-05-07 03:01 2.6M
20260506T18Z_MSC_RDPS_SkyTransparencyIndex_EAtm_RLatLon0.09_PT082H.grib2 2026-05-07 03:01 694K
20260506T18Z_MSC_RDPS_Snow-Accum1h_Sfc_RLatLon0.09_PT082H.grib2 2026-05-07 03:01 445K
20260506T18Z_MSC_RDPS_Snow-Accum_Sfc_RLatLon0.09_PT082H.grib2 2026-05-07 03:01 752K
20260506T18Z_MSC_RDPS_SnowDensity_Sfc_RLatLon0.09_PT082H.grib2 2026-05-07 03:01 175K
20260506T18Z_MSC_RDPS_SnowDepth_Sfc_RLatLon0.09_PT082H.grib2 2026-05-07 03:01 624K
20260506T18Z_MSC_RDPS_SoilTemp_DBS-0to10cm_RLatLon0.09_PT082H.grib2 2026-05-07 03:01 248K
20260506T18Z_MSC_RDPS_SoilTemp_Sfc_RLatLon0.09_PT082H.grib2 2026-05-07 03:01 278K
20260506T18Z_MSC_RDPS_SoilVolumetricIceContent_Sfc_RLatLon0.09_PT082H.grib2 2026-05-07 03:01 144K
20260506T18Z_MSC_RDPS_SoilVolumetricWaterContent_DBS-0to10cm_RLatLon0.09_PT082H.grib2 2026-05-07 03:01 293K
20260506T18Z_MSC_RDPS_SoilVolumetricWaterContent_DBS-0to1cm_RLatLon0.09_PT082H.grib2 2026-05-07 03:01 343K
20260506T18Z_MSC_RDPS_SpecificHumidity_AGL-120m_RLatLon0.09_PT082H.grib2 2026-05-07 03:01 490K
20260506T18Z_MSC_RDPS_SpecificHumidity_AGL-2m_RLatLon0.09_PT082H.grib2 2026-05-07 03:01 660K
20260506T18Z_MSC_RDPS_SpecificHumidity_AGL-40m_RLatLon0.09_PT082H.grib2 2026-05-07 03:01 496K
20260506T18Z_MSC_RDPS_SpecificHumidity_AGL-80m_RLatLon0.09_PT082H.grib2 2026-05-07 03:01 490K
20260506T18Z_MSC_RDPS_SpecificHumidity_IsbL-0001_RLatLon0.09_PT082H.grib2 2026-05-07 03:01 357K
20260506T18Z_MSC_RDPS_SpecificHumidity_IsbL-0005_RLatLon0.09_PT082H.grib2 2026-05-07 03:01 364K
20260506T18Z_MSC_RDPS_SpecificHumidity_IsbL-0010_RLatLon0.09_PT082H.grib2 2026-05-07 03:01 392K
20260506T18Z_MSC_RDPS_SpecificHumidity_IsbL-0020_RLatLon0.09_PT082H.grib2 2026-05-07 03:01 484K
20260506T18Z_MSC_RDPS_SpecificHumidity_IsbL-0030_RLatLon0.09_PT082H.grib2 2026-05-07 03:01 363K
20260506T18Z_MSC_RDPS_SpecificHumidity_IsbL-0050_RLatLon0.09_PT082H.grib2 2026-05-07 03:01 469K
20260506T18Z_MSC_RDPS_SpecificHumidity_IsbL-0100_RLatLon0.09_PT082H.grib2 2026-05-07 03:01 431K
20260506T18Z_MSC_RDPS_SpecificHumidity_IsbL-0150_RLatLon0.09_PT082H.grib2 2026-05-07 03:01 450K
20260506T18Z_MSC_RDPS_SpecificHumidity_IsbL-0175_RLatLon0.09_PT082H.grib2 2026-05-07 03:01 429K
20260506T18Z_MSC_RDPS_SpecificHumidity_IsbL-0200_RLatLon0.09_PT082H.grib2 2026-05-07 03:01 464K
20260506T18Z_MSC_RDPS_SpecificHumidity_IsbL-0225_RLatLon0.09_PT082H.grib2 2026-05-07 03:01 455K
20260506T18Z_MSC_RDPS_SpecificHumidity_IsbL-0250_RLatLon0.09_PT082H.grib2 2026-05-07 03:01 522K
20260506T18Z_MSC_RDPS_SpecificHumidity_IsbL-0275_RLatLon0.09_PT082H.grib2 2026-05-07 03:01 481K
20260506T18Z_MSC_RDPS_SpecificHumidity_IsbL-0300_RLatLon0.09_PT082H.grib2 2026-05-07 03:01 578K
20260506T18Z_MSC_RDPS_SpecificHumidity_IsbL-0350_RLatLon0.09_PT082H.grib2 2026-05-07 03:01 568K
20260506T18Z_MSC_RDPS_SpecificHumidity_IsbL-0400_RLatLon0.09_PT082H.grib2 2026-05-07 03:01 527K
20260506T18Z_MSC_RDPS_SpecificHumidity_IsbL-0450_RLatLon0.09_PT082H.grib2 2026-05-07 03:01 579K
20260506T18Z_MSC_RDPS_SpecificHumidity_IsbL-0500_RLatLon0.09_PT082H.grib2 2026-05-07 03:01 516K
20260506T18Z_MSC_RDPS_SpecificHumidity_IsbL-0550_RLatLon0.09_PT082H.grib2 2026-05-07 03:01 587K
20260506T18Z_MSC_RDPS_SpecificHumidity_IsbL-0600_RLatLon0.09_PT082H.grib2 2026-05-07 03:01 642K
20260506T18Z_MSC_RDPS_SpecificHumidity_IsbL-0650_RLatLon0.09_PT082H.grib2 2026-05-07 03:01 563K
20260506T18Z_MSC_RDPS_SpecificHumidity_IsbL-0700_RLatLon0.09_PT082H.grib2 2026-05-07 03:01 611K
20260506T18Z_MSC_RDPS_SpecificHumidity_IsbL-0750_RLatLon0.09_PT082H.grib2 2026-05-07 03:01 669K
20260506T18Z_MSC_RDPS_SpecificHumidity_IsbL-0800_RLatLon0.09_PT082H.grib2 2026-05-07 03:01 755K
20260506T18Z_MSC_RDPS_SpecificHumidity_IsbL-0850_RLatLon0.09_PT082H.grib2 2026-05-07 03:01 824K
20260506T18Z_MSC_RDPS_SpecificHumidity_IsbL-0875_RLatLon0.09_PT082H.grib2 2026-05-07 03:01 841K
20260506T18Z_MSC_RDPS_SpecificHumidity_IsbL-0900_RLatLon0.09_PT082H.grib2 2026-05-07 03:01 851K
20260506T18Z_MSC_RDPS_SpecificHumidity_IsbL-0925_RLatLon0.09_PT082H.grib2 2026-05-07 03:01 852K
20260506T18Z_MSC_RDPS_SpecificHumidity_IsbL-0950_RLatLon0.09_PT082H.grib2 2026-05-07 03:01 848K
20260506T18Z_MSC_RDPS_SpecificHumidity_IsbL-0970_RLatLon0.09_PT082H.grib2 2026-05-07 03:01 701K
20260506T18Z_MSC_RDPS_SpecificHumidity_IsbL-0985_RLatLon0.09_PT082H.grib2 2026-05-07 03:01 691K
20260506T18Z_MSC_RDPS_SpecificHumidity_IsbL-1000_RLatLon0.09_PT082H.grib2 2026-05-07 03:01 682K
20260506T18Z_MSC_RDPS_SpecificHumidity_IsbL-1015_RLatLon0.09_PT082H.grib2 2026-05-07 03:01 674K
20260506T18Z_MSC_RDPS_SpecificHumidity_Sfc_RLatLon0.09_PT082H.grib2 2026-05-07 03:01 323K
20260506T18Z_MSC_RDPS_StormRelativeHelicity_EtaL-10000_RLatLon0.09_PT082H.grib2 2026-05-07 03:01 1.1M
20260506T18Z_MSC_RDPS_StormSeverityIndex_EtaL-10000_RLatLon0.09_PT082H.grib2 2026-05-07 03:01 1.2M
20260506T18Z_MSC_RDPS_Thickness_IsbL-0850to0700_RLatLon0.09_PT082H.grib2 2026-05-07 03:01 247K
20260506T18Z_MSC_RDPS_Thickness_IsbL-1000to0500_RLatLon0.09_PT082H.grib2 2026-05-07 03:01 195K
20260506T18Z_MSC_RDPS_Thickness_IsbL-1000to0850_RLatLon0.09_PT082H.grib2 2026-05-07 03:01 260K
20260506T18Z_MSC_RDPS_TotalCloudCover_Sfc_RLatLon0.09_PT082H.grib2 2026-05-07 03:01 662K
20260506T18Z_MSC_RDPS_TotalTotalsIndex_Sfc_RLatLon0.09_PT082H.grib2 2026-05-07 03:01 2.5M
20260506T18Z_MSC_RDPS_UVIndex-ClearSky_Sfc_RLatLon0.09_PT082H.grib2 2026-05-07 03:01 126K
20260506T18Z_MSC_RDPS_UVIndex_Sfc_RLatLon0.09_PT082H.grib2 2026-05-07 03:01 223K
20260506T18Z_MSC_RDPS_UpwardLongwaveRadiationFlux_NTAtm_RLatLon0.09_PT082H.grib2 2026-05-07 03:01 486K
20260506T18Z_MSC_RDPS_UpwardShortwaveRadiationFlux_NTAtm_RLatLon0.09_PT082H.grib2 2026-05-07 03:01 176K
20260506T18Z_MSC_RDPS_VerticalVelocity_IsbL-0250_RLatLon0.09_PT082H.grib2 2026-05-07 03:01 542K
20260506T18Z_MSC_RDPS_VerticalVelocity_IsbL-0500_RLatLon0.09_PT082H.grib2 2026-05-07 03:01 536K
20260506T18Z_MSC_RDPS_VerticalVelocity_IsbL-0700_RLatLon0.09_PT082H.grib2 2026-05-07 03:01 593K
20260506T18Z_MSC_RDPS_VerticalVelocity_IsbL-0850_RLatLon0.09_PT082H.grib2 2026-05-07 03:01 696K
20260506T18Z_MSC_RDPS_VerticalWindShear_EtaL-6500_RLatLon0.09_PT082H.grib2 2026-05-07 03:01 1.2M
20260506T18Z_MSC_RDPS_WindChill_Sfc_RLatLon0.09_PT082H.grib2 2026-05-07 03:01 1.2M
20260506T18Z_MSC_RDPS_WindDir_AGL-10m_RLatLon0.09_PT082H.grib2 2026-05-07 03:01 955K
20260506T18Z_MSC_RDPS_WindDir_AGL-120m_RLatLon0.09_PT082H.grib2 2026-05-07 03:01 591K
20260506T18Z_MSC_RDPS_WindDir_AGL-40m_RLatLon0.09_PT082H.grib2 2026-05-07 03:01 625K
20260506T18Z_MSC_RDPS_WindDir_AGL-80m_RLatLon0.09_PT082H.grib2 2026-05-07 03:01 604K
20260506T18Z_MSC_RDPS_WindDir_IsbL-0001_RLatLon0.09_PT082H.grib2 2026-05-07 03:01 291K
20260506T18Z_MSC_RDPS_WindDir_IsbL-0005_RLatLon0.09_PT082H.grib2 2026-05-07 03:01 365K
20260506T18Z_MSC_RDPS_WindDir_IsbL-0010_RLatLon0.09_PT082H.grib2 2026-05-07 03:01 381K
20260506T18Z_MSC_RDPS_WindDir_IsbL-0020_RLatLon0.09_PT082H.grib2 2026-05-07 03:01 429K
20260506T18Z_MSC_RDPS_WindDir_IsbL-0030_RLatLon0.09_PT082H.grib2 2026-05-07 03:01 414K
20260506T18Z_MSC_RDPS_WindDir_IsbL-0050_RLatLon0.09_PT082H.grib2 2026-05-07 03:01 438K
20260506T18Z_MSC_RDPS_WindDir_IsbL-0100_RLatLon0.09_PT082H.grib2 2026-05-07 03:01 423K
20260506T18Z_MSC_RDPS_WindDir_IsbL-0150_RLatLon0.09_PT082H.grib2 2026-05-07 03:01 413K
20260506T18Z_MSC_RDPS_WindDir_IsbL-0175_RLatLon0.09_PT082H.grib2 2026-05-07 03:01 435K
20260506T18Z_MSC_RDPS_WindDir_IsbL-0200_RLatLon0.09_PT082H.grib2 2026-05-07 03:01 449K
20260506T18Z_MSC_RDPS_WindDir_IsbL-0225_RLatLon0.09_PT082H.grib2 2026-05-07 03:01 463K
20260506T18Z_MSC_RDPS_WindDir_IsbL-0250_RLatLon0.09_PT082H.grib2 2026-05-07 03:01 462K
20260506T18Z_MSC_RDPS_WindDir_IsbL-0275_RLatLon0.09_PT082H.grib2 2026-05-07 03:01 481K
20260506T18Z_MSC_RDPS_WindDir_IsbL-0300_RLatLon0.09_PT082H.grib2 2026-05-07 03:01 477K
20260506T18Z_MSC_RDPS_WindDir_IsbL-0350_RLatLon0.09_PT082H.grib2 2026-05-07 03:01 498K
20260506T18Z_MSC_RDPS_WindDir_IsbL-0400_RLatLon0.09_PT082H.grib2 2026-05-07 03:01 522K
20260506T18Z_MSC_RDPS_WindDir_IsbL-0450_RLatLon0.09_PT082H.grib2 2026-05-07 03:01 546K
20260506T18Z_MSC_RDPS_WindDir_IsbL-0500_RLatLon0.09_PT082H.grib2 2026-05-07 03:01 563K
20260506T18Z_MSC_RDPS_WindDir_IsbL-0550_RLatLon0.09_PT082H.grib2 2026-05-07 03:01 568K
20260506T18Z_MSC_RDPS_WindDir_IsbL-0600_RLatLon0.09_PT082H.grib2 2026-05-07 03:01 590K
20260506T18Z_MSC_RDPS_WindDir_IsbL-0650_RLatLon0.09_PT082H.grib2 2026-05-07 03:01 630K
20260506T18Z_MSC_RDPS_WindDir_IsbL-0700_RLatLon0.09_PT082H.grib2 2026-05-07 03:01 679K
20260506T18Z_MSC_RDPS_WindDir_IsbL-0750_RLatLon0.09_PT082H.grib2 2026-05-07 03:01 727K
20260506T18Z_MSC_RDPS_WindDir_IsbL-0800_RLatLon0.09_PT082H.grib2 2026-05-07 03:01 794K
20260506T18Z_MSC_RDPS_WindDir_IsbL-0850_RLatLon0.09_PT082H.grib2 2026-05-07 03:01 859K
20260506T18Z_MSC_RDPS_WindDir_IsbL-0875_RLatLon0.09_PT082H.grib2 2026-05-07 03:01 878K
20260506T18Z_MSC_RDPS_WindDir_IsbL-0900_RLatLon0.09_PT082H.grib2 2026-05-07 03:01 889K
20260506T18Z_MSC_RDPS_WindDir_IsbL-0925_RLatLon0.09_PT082H.grib2 2026-05-07 03:01 897K
20260506T18Z_MSC_RDPS_WindDir_IsbL-0950_RLatLon0.09_PT082H.grib2 2026-05-07 03:01 903K
20260506T18Z_MSC_RDPS_WindDir_IsbL-0970_RLatLon0.09_PT082H.grib2 2026-05-07 03:01 905K
20260506T18Z_MSC_RDPS_WindDir_IsbL-0985_RLatLon0.09_PT082H.grib2 2026-05-07 03:01 914K
20260506T18Z_MSC_RDPS_WindDir_IsbL-1000_RLatLon0.09_PT082H.grib2 2026-05-07 03:01 932K
20260506T18Z_MSC_RDPS_WindDir_IsbL-1015_RLatLon0.09_PT082H.grib2 2026-05-07 03:01 948K
20260506T18Z_MSC_RDPS_WindGust-Max_AGL-10m_RLatLon0.09_PT082H.grib2 2026-05-07 03:01 1.0M
20260506T18Z_MSC_RDPS_WindGust-Min_AGL-10m_RLatLon0.09_PT082H.grib2 2026-05-07 03:01 1.0M
20260506T18Z_MSC_RDPS_WindGust_AGL-10m_RLatLon0.09_PT082H.grib2 2026-05-07 03:01 1.0M
20260506T18Z_MSC_RDPS_WindSpeed_AGL-10m_RLatLon0.09_PT082H.grib2 2026-05-07 03:01 837K
20260506T18Z_MSC_RDPS_WindSpeed_AGL-120m_RLatLon0.09_PT082H.grib2 2026-05-07 03:01 539K
20260506T18Z_MSC_RDPS_WindSpeed_AGL-40m_RLatLon0.09_PT082H.grib2 2026-05-07 03:01 671K
20260506T18Z_MSC_RDPS_WindSpeed_AGL-80m_RLatLon0.09_PT082H.grib2 2026-05-07 03:01 668K
20260506T18Z_MSC_RDPS_WindSpeed_IsbL-0001_RLatLon0.09_PT082H.grib2 2026-05-07 03:01 252K
20260506T18Z_MSC_RDPS_WindSpeed_IsbL-0005_RLatLon0.09_PT082H.grib2 2026-05-07 03:01 382K
20260506T18Z_MSC_RDPS_WindSpeed_IsbL-0010_RLatLon0.09_PT082H.grib2 2026-05-07 03:01 396K
20260506T18Z_MSC_RDPS_WindSpeed_IsbL-0020_RLatLon0.09_PT082H.grib2 2026-05-07 03:01 323K
20260506T18Z_MSC_RDPS_WindSpeed_IsbL-0030_RLatLon0.09_PT082H.grib2 2026-05-07 03:01 318K
20260506T18Z_MSC_RDPS_WindSpeed_IsbL-0050_RLatLon0.09_PT082H.grib2 2026-05-07 03:01 446K
20260506T18Z_MSC_RDPS_WindSpeed_IsbL-0100_RLatLon0.09_PT082H.grib2 2026-05-07 03:01 476K
20260506T18Z_MSC_RDPS_WindSpeed_IsbL-0150_RLatLon0.09_PT082H.grib2 2026-05-07 03:01 378K
20260506T18Z_MSC_RDPS_WindSpeed_IsbL-0175_RLatLon0.09_PT082H.grib2 2026-05-07 03:01 403K
20260506T18Z_MSC_RDPS_WindSpeed_IsbL-0200_RLatLon0.09_PT082H.grib2 2026-05-07 03:01 438K
20260506T18Z_MSC_RDPS_WindSpeed_IsbL-0225_RLatLon0.09_PT082H.grib2 2026-05-07 03:01 445K
20260506T18Z_MSC_RDPS_WindSpeed_IsbL-0250_RLatLon0.09_PT082H.grib2 2026-05-07 03:01 448K
20260506T18Z_MSC_RDPS_WindSpeed_IsbL-0275_RLatLon0.09_PT082H.grib2 2026-05-07 03:01 467K
20260506T18Z_MSC_RDPS_WindSpeed_IsbL-0300_RLatLon0.09_PT082H.grib2 2026-05-07 03:01 463K
20260506T18Z_MSC_RDPS_WindSpeed_IsbL-0350_RLatLon0.09_PT082H.grib2 2026-05-07 03:01 472K
20260506T18Z_MSC_RDPS_WindSpeed_IsbL-0400_RLatLon0.09_PT082H.grib2 2026-05-07 03:01 478K
20260506T18Z_MSC_RDPS_WindSpeed_IsbL-0450_RLatLon0.09_PT082H.grib2 2026-05-07 03:01 465K
20260506T18Z_MSC_RDPS_WindSpeed_IsbL-0500_RLatLon0.09_PT082H.grib2 2026-05-07 03:01 465K
20260506T18Z_MSC_RDPS_WindSpeed_IsbL-0550_RLatLon0.09_PT082H.grib2 2026-05-07 03:01 465K
20260506T18Z_MSC_RDPS_WindSpeed_IsbL-0600_RLatLon0.09_PT082H.grib2 2026-05-07 03:01 473K
20260506T18Z_MSC_RDPS_WindSpeed_IsbL-0650_RLatLon0.09_PT082H.grib2 2026-05-07 03:01 610K
20260506T18Z_MSC_RDPS_WindSpeed_IsbL-0700_RLatLon0.09_PT082H.grib2 2026-05-07 03:01 638K
20260506T18Z_MSC_RDPS_WindSpeed_IsbL-0750_RLatLon0.09_PT082H.grib2 2026-05-07 03:01 669K
20260506T18Z_MSC_RDPS_WindSpeed_IsbL-0800_RLatLon0.09_PT082H.grib2 2026-05-07 03:01 762K
20260506T18Z_MSC_RDPS_WindSpeed_IsbL-0850_RLatLon0.09_PT082H.grib2 2026-05-07 03:01 819K
20260506T18Z_MSC_RDPS_WindSpeed_IsbL-0875_RLatLon0.09_PT082H.grib2 2026-05-07 03:01 836K
20260506T18Z_MSC_RDPS_WindSpeed_IsbL-0900_RLatLon0.09_PT082H.grib2 2026-05-07 03:01 846K
20260506T18Z_MSC_RDPS_WindSpeed_IsbL-0925_RLatLon0.09_PT082H.grib2 2026-05-07 03:01 859K
20260506T18Z_MSC_RDPS_WindSpeed_IsbL-0950_RLatLon0.09_PT082H.grib2 2026-05-07 03:01 863K
20260506T18Z_MSC_RDPS_WindSpeed_IsbL-0970_RLatLon0.09_PT082H.grib2 2026-05-07 03:01 860K
20260506T18Z_MSC_RDPS_WindSpeed_IsbL-0985_RLatLon0.09_PT082H.grib2 2026-05-07 03:01 856K
20260506T18Z_MSC_RDPS_WindSpeed_IsbL-1000_RLatLon0.09_PT082H.grib2 2026-05-07 03:01 847K
20260506T18Z_MSC_RDPS_WindSpeed_IsbL-1015_RLatLon0.09_PT082H.grib2 2026-05-07 03:01 838K
20260506T18Z_MSC_RDPS_WindU_AGL-10m_RLatLon0.09_PT082H.grib2 2026-05-07 03:01 429K
20260506T18Z_MSC_RDPS_WindU_AGL-120m_RLatLon0.09_PT082H.grib2 2026-05-07 03:01 533K
20260506T18Z_MSC_RDPS_WindU_AGL-40m_RLatLon0.09_PT082H.grib2 2026-05-07 03:01 536K
20260506T18Z_MSC_RDPS_WindU_AGL-80m_RLatLon0.09_PT082H.grib2 2026-05-07 03:01 534K
20260506T18Z_MSC_RDPS_WindU_IsbL-0001_RLatLon0.09_PT082H.grib2 2026-05-07 03:01 292K
20260506T18Z_MSC_RDPS_WindU_IsbL-0005_RLatLon0.09_PT082H.grib2 2026-05-07 03:01 286K
20260506T18Z_MSC_RDPS_WindU_IsbL-0010_RLatLon0.09_PT082H.grib2 2026-05-07 03:01 296K
20260506T18Z_MSC_RDPS_WindU_IsbL-0020_RLatLon0.09_PT082H.grib2 2026-05-07 03:01 313K
20260506T18Z_MSC_RDPS_WindU_IsbL-0030_RLatLon0.09_PT082H.grib2 2026-05-07 03:01 309K
20260506T18Z_MSC_RDPS_WindU_IsbL-0050_RLatLon0.09_PT082H.grib2 2026-05-07 03:01 338K
20260506T18Z_MSC_RDPS_WindU_IsbL-0100_RLatLon0.09_PT082H.grib2 2026-05-07 03:01 432K
20260506T18Z_MSC_RDPS_WindU_IsbL-0150_RLatLon0.09_PT082H.grib2 2026-05-07 03:01 369K
20260506T18Z_MSC_RDPS_WindU_IsbL-0175_RLatLon0.09_PT082H.grib2 2026-05-07 03:01 417K
20260506T18Z_MSC_RDPS_WindU_IsbL-0200_RLatLon0.09_PT082H.grib2 2026-05-07 03:01 430K
20260506T18Z_MSC_RDPS_WindU_IsbL-0225_RLatLon0.09_PT082H.grib2 2026-05-07 03:01 436K
20260506T18Z_MSC_RDPS_WindU_IsbL-0250_RLatLon0.09_PT082H.grib2 2026-05-07 03:01 437K
20260506T18Z_MSC_RDPS_WindU_IsbL-0275_RLatLon0.09_PT082H.grib2 2026-05-07 03:01 354K
20260506T18Z_MSC_RDPS_WindU_IsbL-0300_RLatLon0.09_PT082H.grib2 2026-05-07 03:01 350K
20260506T18Z_MSC_RDPS_WindU_IsbL-0350_RLatLon0.09_PT082H.grib2 2026-05-07 03:01 460K
20260506T18Z_MSC_RDPS_WindU_IsbL-0400_RLatLon0.09_PT082H.grib2 2026-05-07 03:01 465K
20260506T18Z_MSC_RDPS_WindU_IsbL-0450_RLatLon0.09_PT082H.grib2 2026-05-07 03:01 469K
20260506T18Z_MSC_RDPS_WindU_IsbL-0500_RLatLon0.09_PT082H.grib2 2026-05-07 03:01 470K
20260506T18Z_MSC_RDPS_WindU_IsbL-0550_RLatLon0.09_PT082H.grib2 2026-05-07 03:01 472K
20260506T18Z_MSC_RDPS_WindU_IsbL-0600_RLatLon0.09_PT082H.grib2 2026-05-07 03:01 464K
20260506T18Z_MSC_RDPS_WindU_IsbL-0650_RLatLon0.09_PT082H.grib2 2026-05-07 03:01 483K
20260506T18Z_MSC_RDPS_WindU_IsbL-0700_RLatLon0.09_PT082H.grib2 2026-05-07 03:01 507K
20260506T18Z_MSC_RDPS_WindU_IsbL-0750_RLatLon0.09_PT082H.grib2 2026-05-07 03:01 659K
20260506T18Z_MSC_RDPS_WindU_IsbL-0800_RLatLon0.09_PT082H.grib2 2026-05-07 03:01 705K
20260506T18Z_MSC_RDPS_WindU_IsbL-0850_RLatLon0.09_PT082H.grib2 2026-05-07 03:01 761K
20260506T18Z_MSC_RDPS_WindU_IsbL-0875_RLatLon0.09_PT082H.grib2 2026-05-07 03:01 776K
20260506T18Z_MSC_RDPS_WindU_IsbL-0900_RLatLon0.09_PT082H.grib2 2026-05-07 03:01 790K
20260506T18Z_MSC_RDPS_WindU_IsbL-0925_RLatLon0.09_PT082H.grib2 2026-05-07 03:01 659K
20260506T18Z_MSC_RDPS_WindU_IsbL-0950_RLatLon0.09_PT082H.grib2 2026-05-07 03:01 798K
20260506T18Z_MSC_RDPS_WindU_IsbL-0970_RLatLon0.09_PT082H.grib2 2026-05-07 03:01 792K
20260506T18Z_MSC_RDPS_WindU_IsbL-0985_RLatLon0.09_PT082H.grib2 2026-05-07 03:01 833K
20260506T18Z_MSC_RDPS_WindU_IsbL-1000_RLatLon0.09_PT082H.grib2 2026-05-07 03:01 826K
20260506T18Z_MSC_RDPS_WindU_IsbL-1015_RLatLon0.09_PT082H.grib2 2026-05-07 03:01 820K
20260506T18Z_MSC_RDPS_WindV_AGL-10m_RLatLon0.09_PT082H.grib2 2026-05-07 03:01 430K
20260506T18Z_MSC_RDPS_WindV_AGL-120m_RLatLon0.09_PT082H.grib2 2026-05-07 03:01 534K
20260506T18Z_MSC_RDPS_WindV_AGL-40m_RLatLon0.09_PT082H.grib2 2026-05-07 03:01 537K
20260506T18Z_MSC_RDPS_WindV_AGL-80m_RLatLon0.09_PT082H.grib2 2026-05-07 03:01 536K
20260506T18Z_MSC_RDPS_WindV_IsbL-0001_RLatLon0.09_PT082H.grib2 2026-05-07 03:01 244K
20260506T18Z_MSC_RDPS_WindV_IsbL-0005_RLatLon0.09_PT082H.grib2 2026-05-07 03:01 286K
20260506T18Z_MSC_RDPS_WindV_IsbL-0010_RLatLon0.09_PT082H.grib2 2026-05-07 03:01 297K
20260506T18Z_MSC_RDPS_WindV_IsbL-0020_RLatLon0.09_PT082H.grib2 2026-05-07 03:01 313K
20260506T18Z_MSC_RDPS_WindV_IsbL-0030_RLatLon0.09_PT082H.grib2 2026-05-07 03:01 310K
20260506T18Z_MSC_RDPS_WindV_IsbL-0050_RLatLon0.09_PT082H.grib2 2026-05-07 03:01 337K
20260506T18Z_MSC_RDPS_WindV_IsbL-0100_RLatLon0.09_PT082H.grib2 2026-05-07 03:01 426K
20260506T18Z_MSC_RDPS_WindV_IsbL-0150_RLatLon0.09_PT082H.grib2 2026-05-07 03:01 392K
20260506T18Z_MSC_RDPS_WindV_IsbL-0175_RLatLon0.09_PT082H.grib2 2026-05-07 03:01 415K
20260506T18Z_MSC_RDPS_WindV_IsbL-0200_RLatLon0.09_PT082H.grib2 2026-05-07 03:01 331K
20260506T18Z_MSC_RDPS_WindV_IsbL-0225_RLatLon0.09_PT082H.grib2 2026-05-07 03:01 337K
20260506T18Z_MSC_RDPS_WindV_IsbL-0250_RLatLon0.09_PT082H.grib2 2026-05-07 03:01 366K
20260506T18Z_MSC_RDPS_WindV_IsbL-0275_RLatLon0.09_PT082H.grib2 2026-05-07 03:01 378K
20260506T18Z_MSC_RDPS_WindV_IsbL-0300_RLatLon0.09_PT082H.grib2 2026-05-07 03:01 373K
20260506T18Z_MSC_RDPS_WindV_IsbL-0350_RLatLon0.09_PT082H.grib2 2026-05-07 03:01 357K
20260506T18Z_MSC_RDPS_WindV_IsbL-0400_RLatLon0.09_PT082H.grib2 2026-05-07 03:01 361K
20260506T18Z_MSC_RDPS_WindV_IsbL-0450_RLatLon0.09_PT082H.grib2 2026-05-07 03:01 365K
20260506T18Z_MSC_RDPS_WindV_IsbL-0500_RLatLon0.09_PT082H.grib2 2026-05-07 03:01 469K
20260506T18Z_MSC_RDPS_WindV_IsbL-0550_RLatLon0.09_PT082H.grib2 2026-05-07 03:01 469K
20260506T18Z_MSC_RDPS_WindV_IsbL-0600_RLatLon0.09_PT082H.grib2 2026-05-07 03:01 476K
20260506T18Z_MSC_RDPS_WindV_IsbL-0650_RLatLon0.09_PT082H.grib2 2026-05-07 03:01 493K
20260506T18Z_MSC_RDPS_WindV_IsbL-0700_RLatLon0.09_PT082H.grib2 2026-05-07 03:01 501K
20260506T18Z_MSC_RDPS_WindV_IsbL-0750_RLatLon0.09_PT082H.grib2 2026-05-07 03:01 529K
20260506T18Z_MSC_RDPS_WindV_IsbL-0800_RLatLon0.09_PT082H.grib2 2026-05-07 03:01 572K
20260506T18Z_MSC_RDPS_WindV_IsbL-0850_RLatLon0.09_PT082H.grib2 2026-05-07 03:01 623K
20260506T18Z_MSC_RDPS_WindV_IsbL-0875_RLatLon0.09_PT082H.grib2 2026-05-07 03:01 638K
20260506T18Z_MSC_RDPS_WindV_IsbL-0900_RLatLon0.09_PT082H.grib2 2026-05-07 03:01 649K
20260506T18Z_MSC_RDPS_WindV_IsbL-0925_RLatLon0.09_PT082H.grib2 2026-05-07 03:01 658K
20260506T18Z_MSC_RDPS_WindV_IsbL-0950_RLatLon0.09_PT082H.grib2 2026-05-07 03:01 659K
20260506T18Z_MSC_RDPS_WindV_IsbL-0970_RLatLon0.09_PT082H.grib2 2026-05-07 03:01 795K
20260506T18Z_MSC_RDPS_WindV_IsbL-0985_RLatLon0.09_PT082H.grib2 2026-05-07 03:01 789K
20260506T18Z_MSC_RDPS_WindV_IsbL-1000_RLatLon0.09_PT082H.grib2 2026-05-07 03:01 829K
20260506T18Z_MSC_RDPS_WindV_IsbL-1015_RLatLon0.09_PT082H.grib2 2026-05-07 03:01 821K